When you browse on this site, cookies collect data to enhance your experience and personalize the content and advertising you see.
Visit our Privacy Policy to learn more. By continuing to use the site, you agree to this use of cookies and data.
  • In Deutschland
  • Länderverzeichnis
  • Für 7 Tage
  • Wassertemperatur
  • Satellitenkarten
  • Wetterkarte
  • Widgets
  • user-avatar
    Anmelden

    Stündliche Wetter Krusze

    Heute, 22 Mai, Mittwoch

    Zeit Temperatur Niederschläge Wind Luftdruck Luftfeuchtigkeit
    00:00 +12°C° 0 mm 4 m/S 743 mmHg 91%
    01:00 +11°C° 0 mm 4 m/S 743 mmHg 92%
    02:00 +11°C° 0 mm 4 m/S 743 mmHg 93%
    03:00 +11°C° 0 mm 4 m/S 743 mmHg 93%
    04:00 +11°C° 0 mm 4 m/S 743 mmHg 94%
    05:00 +12°C° 0 mm 5 m/S 743 mmHg 90%
    06:00 +13°C° 0 mm 5 m/S 743 mmHg 86%
    07:00 +15°C° 0 mm 5 m/S 743 mmHg 80%
    08:00 +16°C° 0.1 mm 5 m/S 743 mmHg 78%
    09:00 +16°C° 0.1 mm 5 m/S 744 mmHg 76%
    10:00 +17°C° 0.1 mm 5 m/S 744 mmHg 74%
    11:00 +19°C° 0.4 mm 5 m/S 744 mmHg 73%
    12:00 +19°C° 0.4 mm 5 m/S 744 mmHg 72%
    13:00 +20°C° 0.4 mm 5 m/S 744 mmHg 71%
    14:00 +20°C° 0.6 mm 4 m/S 744 mmHg 72%
    15:00 +20°C° 0.6 mm 4 m/S 744 mmHg 73%
    16:00 +20°C° 0.6 mm 4 m/S 744 mmHg 74%
    17:00 +19°C° 0.4 mm 4 m/S 744 mmHg 78%
    18:00 +18°C° 0.4 mm 3 m/S 744 mmHg 83%
    19:00 +17°C° 0.4 mm 3 m/S 744 mmHg 88%
    20:00 +16°C° 0.2 mm 2 m/S 744 mmHg 89%
    21:00 +16°C° 0.2 mm 2 m/S 745 mmHg 91%
    22:00 +15°C° 0.2 mm 2 m/S 745 mmHg 93%
    23:00 +14°C° 0.1 mm 2 m/S 745 mmHg 94%

    Morgen, 23 Mai, Donnerstag

    Zeit Temperatur Niederschläge Wind Luftdruck Luftfeuchtigkeit
    00:00 +14°C° 0.1 mm 2 m/S 745 mmHg 94%
    01:00 +14°C° 0.1 mm 1 m/S 746 mmHg 94%
    02:00 +13°C° 0 mm 1 m/S 746 mmHg 95%
    03:00 +13°C° 0 mm 1 m/S 746 mmHg 95%
    04:00 +13°C° 0 mm 1 m/S 746 mmHg 95%
    05:00 +14°C° 0 mm 1 m/S 747 mmHg 91%
    06:00 +16°C° 0 mm 1 m/S 747 mmHg 88%
    07:00 +17°C° 0 mm 2 m/S 747 mmHg 84%
    08:00 +19°C° 0 mm 2 m/S 748 mmHg 78%
    09:00 +20°C° 0 mm 2 m/S 748 mmHg 72%
    10:00 +21°C° 0 mm 2 m/S 748 mmHg 66%
    11:00 +21°C° 0.7 mm 3 m/S 748 mmHg 68%
    12:00 +22°C° 0.7 mm 3 m/S 748 mmHg 69%
    13:00 +22°C° 0.7 mm 4 m/S 748 mmHg 71%
    14:00 +21°C° 0.9 mm 4 m/S 748 mmHg 74%
    15:00 +21°C° 0.9 mm 5 m/S 748 mmHg 77%
    16:00 +20°C° 0.9 mm 5 m/S 748 mmHg 80%
    17:00 +19°C° 0.2 mm 5 m/S 748 mmHg 82%
    18:00 +17°C° 0.2 mm 5 m/S 748 mmHg 84%
    19:00 +16°C° 0.2 mm 5 m/S 748 mmHg 86%
    20:00 +15°C° 0 mm 5 m/S 749 mmHg 88%
    21:00 +14°C° 0 mm 4 m/S 749 mmHg 89%
    22:00 +13°C° 0 mm 4 m/S 749 mmHg 90%
    23:00 +12°C° 0 mm 4 m/S 750 mmHg 87%

    übermorgen, 24 Mai, Freitag

    Zeit Temperatur Niederschläge Wind Luftdruck Luftfeuchtigkeit
    00:00 +12°C° 0 mm 4 m/S 750 mmHg 84%
    01:00 +12°C° 0 mm 4 m/S 750 mmHg 81%
    02:00 +11°C° 0 mm 4 m/S 750 mmHg 80%
    03:00 +11°C° 0 mm 3 m/S 750 mmHg 79%
    04:00 +10°C° 0 mm 3 m/S 750 mmHg 79%
    05:00 +11°C° 0 mm 3 m/S 750 mmHg 78%
    06:00 +12°C° 0 mm 3 m/S 750 mmHg 78%
    07:00 +13°C° 0 mm 3 m/S 750 mmHg 77%
    08:00 +14°C° 0 mm 4 m/S 750 mmHg 73%
    09:00 +17°C° 0 mm 4 m/S 750 mmHg 68%
    10:00 +19°C° 0 mm 4 m/S 750 mmHg 63%
    11:00 +20°C° 0 mm 4 m/S 750 mmHg 61%
    12:00 +20°C° 0 mm 4 m/S 749 mmHg 59%
    13:00 +21°C° 0 mm 5 m/S 749 mmHg 56%
    14:00 +21°C° 0 mm 4 m/S 749 mmHg 57%
    15:00 +21°C° 0 mm 4 m/S 749 mmHg 57%
    16:00 +21°C° 0 mm 4 m/S 748 mmHg 57%
    17:00 +20°C° 0 mm 4 m/S 748 mmHg 62%
    18:00 +19°C° 0 mm 3 m/S 748 mmHg 68%
    19:00 +18°C° 0 mm 3 m/S 748 mmHg 73%
    20:00 +16°C° 0 mm 2 m/S 748 mmHg 76%
    21:00 +15°C° 0 mm 2 m/S 749 mmHg 79%
    22:00 +14°C° 0 mm 2 m/S 749 mmHg 82%
    23:00 +13°C° 0 mm 1 m/S 749 mmHg 83%

    25 Mai, Samstag

    Zeit Temperatur Niederschläge Wind Luftdruck Luftfeuchtigkeit
    00:00 +13°C° 0 mm 1 m/S 749 mmHg 83%
    01:00 +11°C° 0 mm 0 m/S 748 mmHg 83%
    02:00 +11°C° 0 mm 0 m/S 748 mmHg 83%
    03:00 +12°C° 0 mm 1 m/S 748 mmHg 83%
    04:00 +12°C° 0 mm 1 m/S 748 mmHg 83%
    05:00 +14°C° 0 mm 2 m/S 748 mmHg 80%
    06:00 +16°C° 0 mm 3 m/S 748 mmHg 77%
    07:00 +17°C° 0 mm 3 m/S 748 mmHg 74%
    08:00 +18°C° 0.1 mm 4 m/S 748 mmHg 68%
    09:00 +20°C° 0.1 mm 4 m/S 748 mmHg 61%
    10:00 +21°C° 0.1 mm 5 m/S 748 mmHg 55%
    11:00 +21°C° 0.3 mm 5 m/S 748 mmHg 57%
    12:00 +21°C° 0.3 mm 5 m/S 747 mmHg 59%
    13:00 +21°C° 0.3 mm 6 m/S 747 mmHg 61%
    14:00 +21°C° 0.1 mm 5 m/S 747 mmHg 60%
    15:00 +21°C° 0.1 mm 5 m/S 747 mmHg 58%
    16:00 +21°C° 0.1 mm 5 m/S 747 mmHg 56%
    17:00 +20°C° 0 mm 4 m/S 747 mmHg 61%
    18:00 +18°C° 0 mm 4 m/S 747 mmHg 66%
    19:00 +17°C° 0 mm 3 m/S 747 mmHg 71%
    20:00 +16°C° 0 mm 3 m/S 747 mmHg 73%
    21:00 +16°C° 0 mm 3 m/S 748 mmHg 74%
    22:00 +14°C° 0 mm 3 m/S 748 mmHg 75%
    23:00 +13°C° 0 mm 3 m/S 748 mmHg 79%

    26 Mai, Sonntag

    Zeit Temperatur Niederschläge Wind Luftdruck Luftfeuchtigkeit
    00:00 +12°C° 0 mm 3 m/S 748 mmHg 83%
    01:00 +11°C° 0 mm 4 m/S 748 mmHg 87%
    02:00 +10°C° 0 mm 3 m/S 748 mmHg 88%
    03:00 +9°C° 0 mm 3 m/S 748 mmHg 89%
    04:00 +9°C° 0 mm 3 m/S 748 mmHg 91%
    05:00 +10°C° 0 mm 3 m/S 748 mmHg 86%
    06:00 +11°C° 0 mm 4 m/S 747 mmHg 81%
    07:00 +12°C° 0 mm 5 m/S 747 mmHg 75%
    08:00 +13°C° 0 mm 5 m/S 747 mmHg 73%
    09:00 +13°C° 0 mm 6 m/S 747 mmHg 70%
    10:00 +14°C° 0 mm 6 m/S 747 mmHg 67%
    11:00 +14°C° 0 mm 6 m/S 747 mmHg 66%
    12:00 +14°C° 0 mm 6 m/S 747 mmHg 65%
    13:00 +14°C° 0 mm 7 m/S 747 mmHg 64%
    14:00 +14°C° 0.1 mm 7 m/S 746 mmHg 64%
    15:00 +14°C° 0.1 mm 7 m/S 746 mmHg 64%
    16:00 +14°C° 0.1 mm 7 m/S 746 mmHg 64%
    17:00 +13°C° 0.1 mm 6 m/S 746 mmHg 67%
    18:00 +11°C° 0.1 mm 6 m/S 746 mmHg 70%
    19:00 +10°C° 0.1 mm 5 m/S 746 mmHg 72%
    20:00 +9°C° 0 mm 5 m/S 747 mmHg 73%
    21:00 +8°C° 0 mm 5 m/S 747 mmHg 73%
    22:00 +7°C° 0 mm 5 m/S 747 mmHg 74%
    23:00 +7°C° 0 mm 5 m/S 748 mmHg 74%

    27 Mai, Montag

    Zeit Temperatur Niederschläge Wind Luftdruck Luftfeuchtigkeit
    00:00 +6°C° 0 mm 5 m/S 748 mmHg 75%
    01:00 +6°C° 0 mm 5 m/S 748 mmHg 76%
    02:00 +6°C° 0 mm 5 m/S 748 mmHg 76%
    03:00 +6°C° 0 mm 5 m/S 748 mmHg 77%
    04:00 +6°C° 0 mm 5 m/S 748 mmHg 77%
    05:00 +7°C° 0 mm 5 m/S 749 mmHg 74%
    06:00 +8°C° 0 mm 5 m/S 749 mmHg 71%
    07:00 +10°C° 0 mm 5 m/S 749 mmHg 68%
    08:00 +12°C° 0 mm 5 m/S 749 mmHg 65%
    09:00 +13°C° 0 mm 5 m/S 749 mmHg 61%
    10:00 +14°C° 0 mm 5 m/S 749 mmHg 58%
    11:00 +15°C° 0 mm 4 m/S 749 mmHg 55%
    12:00 +17°C° 0 mm 4 m/S 749 mmHg 51%
    13:00 +18°C° 0 mm 4 m/S 749 mmHg 48%
    14:00 +19°C° 0 mm 3 m/S 748 mmHg 47%
    15:00 +19°C° 0 mm 3 m/S 748 mmHg 46%
    16:00 +19°C° 0 mm 3 m/S 747 mmHg 46%
    17:00 +18°C° 0 mm 2 m/S 747 mmHg 51%
    18:00 +17°C° 0 mm 2 m/S 747 mmHg 57%
    19:00 +16°C° 0 mm 2 m/S 746 mmHg 63%
    20:00 +15°C° 0 mm 2 m/S 746 mmHg 64%
    21:00 +14°C° 0 mm 3 m/S 746 mmHg 65%
    22:00 +13°C° 0 mm 3 m/S 746 mmHg 66%
    23:00 +13°C° 0 mm 3 m/S 746 mmHg 70%
    Mehr zeigen